AirNav   Pilot Hours Calculator
 
 1220 users online  

2IL9 Meadow Creek Airport
Monee, Illinois, USA

GOING TO MONEE?


FAA INFORMATION EFFECTIVE 08 OCTOBER 2020

Location

FAA Identifier: 2IL9
Lat/Long: 41-25-58.1210N 087-46-54.1670W
41-25.968683N 087-46.902783W
41.4328114,-87.7817131
(estimated)
Elevation: 770 ft. / 235 m (estimated)
Variation: 01W (1990)
From city: 1 mile W of MONEE, IL
Time zone: UTC -5 (UTC -6 during Standard Time)
Zip code: 60449

Airport Operations

Airport use: Private use. Permission required prior to landing
Activation date: 09/1990
Control tower: no
ARTCC: CHICAGO CENTER
FSS: KANKAKEE FLIGHT SERVICE STATION
Attendance: UNATNDD
Wind indicator: yes
Segmented circle: no
Lights: SS-SR

Airport Communications

WX AWOS-AV at C56 (6 nm SE): 119.125 (708-534-5256)
WX AWOS-3 at IGQ (13 nm NE): 119.275 (708-895-9526)
WX AWOS-3 at LOT (18 nm NW): 118.525 (815-588-4802)
WX AWOS-3 at JOT (18 nm W): 119.975 (815-730-9560)
WX AWOS-3PT at GYY (20 nm NE): 134.575 (219-944-0010)

Nearby radio navigation aids

VOR radial/distance  VOR name  Freq  Var
EONr000/9.8PEOTONE VORTAC113.2002E
CGTr242/10.5CHICAGO HEIGHTS VORTAC114.2002E
JOTr104/25.1JOLIET VOR/DME112.3002E
DPAr135/37.5DUPAGE VOR/DME108.4002E

Airport Services

Runway Information

Runway 4/22

Dimensions: 3400 x 40 ft. / 1036 x 12 m
Surface: asphalt
Runway edge lights: low intensity
RUNWAY 4  RUNWAY 22
Traffic pattern: leftleft
Runway end identifier lights: yesyes

Airport Ownership and Management from official FAA records

Ownership: Privately-owned
Owner: MEADOW CREEK CORP
25245 S. DOOLITTLE DR
MONEE, IL 60449
Phone (312) 446-2163
Manager: CHRISTIAN THOMSEN
25245 S. DOOLITTLE DR
MONEE, IL 60449
Phone (312) 446-2163

Airport Operational Statistics

Aircraft based on the field: 13
Single engine airplanes: 12
Helicopters: 1
    

Additional Remarks

FOR CD CTC CHICAGO APCH AT 847-289-0926.

Instrument Procedures

There are no published instrument procedures at 2IL9.

Some nearby airports with instrument procedures:

C56 - Bult Field Airport (6 nm SE)
KIGQ - Lansing Municipal Airport (13 nm NE)
KLOT - Lewis University Airport (18 nm NW)
05C - Griffith-Merrillville Airport (18 nm E)
KGYY - Gary/Chicago International Airport (20 nm NE)
 
Loc | Ops | Rwys | IFR | FBO | Links
Com | Nav | Svcs | Stats | Notes
Area around 2IL9 (Meadow Creek Airport)
 
Road maps at: MapQuest Bing Google
 
Aerial photo
WARNING: Photo may not be current or correct
Aerial photo of 2IL9 (Meadow Creek Airport)
Photo taken 18-Mar-2007

Do you have a better or more recent aerial photo of Meadow Creek Airport that you would like to share? If so, please send us your photo.

 
Sectional chart

 
Airport distance calculator
Flying to Meadow Creek Airport? Find the distance to fly.

From to 2IL9

Sunrise and sunset
Times for 22-Oct-2020
 Local
(UTC-5)
 Zulu
(UTC)
Morning civil twilight06:4511:45
Sunrise07:1312:13
Sunset17:5822:58
Evening civil twilight18:2623:26

Current date and time
Zulu (UTC)  22-Oct-2020 22:16:53
Local (UTC-5)  22-Oct-2020 17:16:53
 
METAR
KIGQ 
13nm NE 
222155Z AUTO 20012G19KT 10SM CLR 25/17 A2993 RMK AO2 T02510170
KJOT 
18nm W 
222155Z AUTO 20008G18KT 10SM CLR 27/19 A2991 RMK AO2 T02650186
KLOT 
18nm NW 
222155Z AUTO 19016G22KT 10SM SCT040 25/19 A2990 RMK AO2 LTG DSNT N P0001 T02540187
KGYY 
20nm NE 
222145Z 17007KT 10SM CLR 26/17 A2993
KMDW 
21nm N 
222153Z 20009KT 10SM FEW039 BKN250 26/17 A2990 RMK AO2 SLP121 T02610167 $
KIKK 
22nm S 
222156Z AUTO 20012G18KT 10SM SCT046 26/17 A2995 RMK AO2
TAF
KGYY 
20nm NE 
221739Z 2218/2318 17007KT 3SM BR BKN005 FM221815 18008KT P6SM SCT007 FM222000 18011G20KT P6SM SCT050 SCT250 FM230200 19016G26KT P6SM SCT025 SCT250 FM231300 32013G20KT 5SM -SHRA SCT006 OVC010 PROB30 2313/2317 3SM -TSRA OVC006CB
KMDW 
21nm N 
221737Z 2218/2324 17008KT 4SM BR OVC006 FM221830 19009KT 5SM BR SCT004 BKN009 FM221930 18010G17KT P6SM SCT050 SCT250 FM230100 19016G26KT P6SM FEW025 SCT250 FM231100 25013G20KT 6SM -SHRA BKN007 OVC010 FM231200 32013G20KT 5SM -SHRA SCT006 OVC010 PROB30 2312/2316 3SM -TSRA OVC006CB FM232000 33014G21KT P6SM BKN020
NOTAMs
Click for the latest NOTAMs
NOTAMs are issued by the DoD/FAA and will open in a separate window not controlled by AirNav.

 

 
 

Would you like to see your business listed on this page?

 If your business provides an interesting product or service to pilots, flight crews, aircraft, or users of the Meadow Creek Airport, you should consider listing it here.  To start the listing process, click on the button below
 
Add a business
 

Other Pages about Meadow Creek Airport

www.meadowcreekairpark.com
 
Update a link
 
Copyright © AirNav, LLC. All rights reserved. Privacy Policy  Contact